Regional Weather Roundup
Issued by NWS

Home | Current Version | Previous Version | Graphics & Text | Print | Product List | Glossary On
Versions: 1 2 3 4 5 6 7 8 9 10 11 12 13 14 15 16 17 18 19 20 21 22 23 24 25 26 27 28 29 30 31 32 33 34 35 36 37 38 39 40 41 42 43 44 45 46 47 48 49 50
000
ASUS43 KFSD 210502
RWRSD

WEATHER ROUNDUP FOR SOUTH DAKOTA
NATIONAL WEATHER SERVICE SIOUX FALLS SD
1200 AM CDT SAT OCT 21 2017

NOTE: "FAIR" INDICATES FEW OR NO CLOUDS BELOW 12,000 FEET WITH NO
SIGNIFICANT WEATHER AND/OR OBSTRUCTIONS TO VISIBILITY.


SDZ001>005-009-010-012>017-210600-
NORTHWEST AND NORTH CENTRAL SOUTH DAKOTA

CITY           SKY/WX    TMP DP  RH WIND       PRES   REMARKS
BUFFALO          N/A     56  43  61 W28G35    29.35R
FAITH            N/A     61  46  57 SW12      29.32R
MOBRIDGE       CLEAR     62  53  72 SE16      29.29F
$$

SDZ012>016-024>037-041>051-057-063-072>074-210600-
SOUTHWEST AND SOUTH CENTRAL SOUTH DAKOTA

CITY           SKY/WX    TMP DP  RH WIND       PRES   REMARKS
RAPID CTY ARPT MOCLDY    65  33  30 W8        29.40R
PIERRE         CLOUDY    59  53  80 S10       29.34F
CUSTER         CLOUDY    56  27  32 SW5       29.53R
ELLSWORTH AFB  CLOUDY    65  32  29 NW9       29.40R
PHILIP         PTCLDY    64  51  62 SW10      29.36R
PINE RIDGE     MOCLDY    68  41  37 W10       29.44R
SPEARFISH      FAIR      61  39  44 NW25G32   29.49R
WINNER         FAIR      69  55  60 S24G33    29.40F
$$

SDZ004>011-016>023-039-040-210600-
NORTHEAST SOUTH DAKOTA

CITY           SKY/WX    TMP DP  RH WIND       PRES   REMARKS
ABERDEEN       CLEAR     67  58  72 S20G26    29.38S
WATERTOWN      PTCLDY    65  58  78 S26G36    29.47F
BROOKINGS      CLOUDY    67  58  72 S25G32    29.52F
SISSETON         N/A     68  59  73 S18G25    29.42F
$$

SDZ017-020-022-023-036>040-048>070-210600-
SOUTHEAST SOUTH DAKOTA

CITY           SKY/WX    TMP DP  RH WIND       PRES   REMARKS
SIOUX FALLS    CLOUDY    69  59  70 S28G38    29.56F
HURON          CLEAR     69  58  67 S22G31    29.42S
CHAMBERLAIN    CLEAR     69  58  69 S22G31    29.40F
MITCHELL       CLEAR     70  58  65 S21G33    29.47S
YANKTON        MOCLDY    68  58  70 SE17      29.55F
$$

ABBREVIATIONS USED IN REMARKS
   TC - TEMPERATURE IN CELSIUS
  WCI - WIND CHILL INDEX
   HX - HEAT INDEX
  VSB - VISIBILITY





USA.gov is the U.S. government's official web portal to all federal, state and local government web resources and services.